Theta_e
336 333 331 328 325 325 325 326 327 326 325 319 316 316 319 320 319 317 315 317 319 319 318 316 316 316 315 316 315 314 315 315 316 315 315 314 314 314 315 315 315 315 315
331 328 327 324 324 324 325 324 320 316 317 319 319 319 318 316 317 316 317 318 317 316 315 314 314 314 314 314 314 314 315 314 314 314 313 313 313 314 313 313 313 313 314
328 327 326 325 324 322 318 317 317 316 316 316 317 318 317 317 317 317 316 315 314 314 313 313 313 313 313 313 313 313 313 314 312 311 311 311 311 312 311 313 312 312 312
326 324 323 322 321 321 321 321 320 320 319 318 317 316 316 316 316 315 315 314 311 309 310 311 312 313 312 312 312 312 311 312 311 310 310 311 310 312 310 310 310 310 310
323 323 322 321 321 320 319 318 317 317 317 316 316 316 315 315 314 312 312 310 308 307 308 311 312 312 311 312 311 311 312 311 311 310 310 310 310 310 309 308 307 309 311
320 319 319 318 317 317 317 316 316 316 316 315 315 314 312 312 310 310 308 308 307 307 309 309 310 310 310 310 311 310 310 311 311 310 310 309 308 307 305 305 306 307 306
317 316 315 315 314 315 315 315 314 313 311 311 311 311 311 309 308 307 307 306 306 308 308 309 308 309 309 310 310 311 310 310 310 310 309 307 306 304 303 305 305 306 308
313 313 313 313 314 312 310 308 309 310 309 309 309 308 308 306 306 306 306 305 305 306 307 307 306 306 307 309 310 311 310 309 309 308 307 305 304 303 303 303 304 305 306
311 312 312 311 311 310 307 309 309 308 308 307 307 305 305 304 305 305 305 305 304 304 305 305 305 306 307 308 309 308 308 307 306 307 305 306 304 302 301 301 302 301 302
310 310 310 309 308 307 306 306 307 306 305 305 305 303 303 302 302 303 305 305 306 306 305 303 303 305 306 306 307 305 304 304 304 304 303 306 304 303 302 299 298 298 299
307 307 305 306 305 304 304 304 304 304 304 303 303 302 301 300 299 300 302 304 304 305 305 305 304 305 304 304 302 300 300 300 300 299 299 300 302 302 301 300 299 296 297
306 305 306 305 304 304 303 302 301 302 304 303 303 302 300 299 298 297 299 301 302 302 302 301 300 299 298 298 297 297 298 298 297 298 298 297 299 300 301 299 300 300 299
306 305 304 304 303 302 300 298 296 297 298 298 299 300 298 297 294 292 297 298 296 299 299 299 298 298 297 296 296 296 296 295 295 296 296 294 298 299 299 301 302 304 306
304 304 304 303 301 299 297 293 291 292 293 293 294 294 292 290 290 290 291 293 295 296 297 296 296 295 295 295 295 295 294 294 294 294 294 296 298 297 296 296 300 304 308
304 304 303 303 302 300 297 295 292 291 290 290 290 290 289 289 290 291 291 292 294 295 295 294 294 294 294 294 294 294 293 294 293 293 291 297 296 294 295 297 298 301 301
302 302 302 301 301 300 299 297 295 294 292 290 289 289 290 290 291 291 292 292 292 293 293 293 293 293 293 293 293 293 292 293 291 291 292 297 295 293 294 298 297 298 302
301 300 300 299 299 298 298 298 296 295 294 292 290 290 291 291 291 292 292 293 292 292 292 292 292 292 292 292 292 292 292 291 289 289 291 296 294 293 292 294 296 299 305
299 299 298 298 297 297 296 296 296 296 295 293 291 291 292 292 292 292 292 292 292 292 292 292 292 292 292 292 291 291 291 290 288 289 290 293 296 293 293 293 295 298 302
298 297 296 295 296 296 296 295 295 295 295 294 291 291 292 292 292 292 292 292 292 292 292 292 291 291 291 291 290 289 289 288 287 289 289 291 296 294 294 294 296 299 303
296 296 296 296 295 295 295 295 294 294 294 294 291 291 292 292 292 292 291 291 291 291 291 291 291 291 291 291 290 288 288 287 288 288 290 291 292 293 293 295 299 299 303
295 294 295 295 295 294 294 294 293 293 293 292 292 291 292 292 292 291 291 291 291 291 290 291 291 290 290 290 289 287 287 286 287 288 289 290 291 291 292 296 298 299 302
295 294 294 294 293 294 293 293 293 293 292 292 292 291 291 291 291 291 290 290 290 290 290 290 290 289 289 289 289 285 285 286 287 288 289 290 290 291 290 296 297 299 302
294 294 294 294 293 294 293 293 292 292 292 291 291 291 291 291 290 290 290 289 289 289 289 289 289 289 288 288 288 284 284 285 286 287 288 289 290 289 289 294 295 298 300
294 294 293 292 292 291 292 292 291 291 291 291 290 290 290 290 289 290 289 288 288 288 288 288 288 288 287 287 286 284 283 285 286 287 288 289 289 288 288 291 292 297 298
293 293 292 292 291 291 291 291 290 290 290 290 290 289 290 289 288 289 288 287 287 287 287 287 287 287 286 286 285 283 284 285 286 287 288 288 288 288 288 289 290 296 298
293 292 292 292 291 291 291 291 290 289 290 289 289 289 289 288 288 288 287 286 286 286 286 286 286 286 286 285 285 283 283 284 285 286 287 287 287 287 287 288 288 294 297
Wind_Speed
22 22 23 20 18 18 18 18 15 11 8 6 5 4 1 1 7 10 9 8 8 11 12 15 17 20 16 18 22 22 18 20 26 32 34 33 36 37 36 33 33 33 29
22 20 21 24 23 20 17 13 12 11 10 9 8 8 5 5 9 10 8 9 13 12 13 15 17 17 18 22 21 19 20 24 30 32 34 36 37 35 33 34 34 30 32
24 24 24 22 20 17 16 15 11 9 7 4 4 3 3 5 6 7 12 13 13 10 12 16 18 17 18 21 20 21 25 22 24 28 35 35 35 34 36 37 38 34 32
26 25 24 22 20 17 15 13 13 9 7 4 3 4 4 9 9 12 16 18 19 18 14 12 15 16 19 21 23 23 21 23 24 25 30 36 35 35 36 39 42 38 40
27 26 23 21 19 16 14 11 9 8 5 3 3 8 11 13 15 16 17 20 19 17 9 9 15 16 22 22 19 24 22 19 21 27 31 35 36 36 36 38 39 40 38
26 25 21 18 16 14 11 10 8 9 9 6 7 9 15 14 14 18 21 19 17 13 11 15 16 15 18 21 20 18 11 18 22 25 29 32 34 35 36 36 36 36 38
25 22 20 18 17 13 11 9 5 4 1 2 3 6 10 13 17 19 19 17 12 12 14 16 17 15 19 16 15 14 11 13 18 24 31 29 34 36 35 35 34 33 34
24 21 19 16 13 6 5 5 9 8 6 4 3 6 12 15 19 19 18 14 6 15 14 17 13 13 18 19 16 17 15 14 19 25 22 29 32 33 30 32 35 34 35
23 20 17 15 12 4 7 9 9 7 5 3 5 8 12 16 18 18 16 15 15 10 4 9 11 14 15 16 17 18 20 23 24 24 26 27 24 27 26 32 32 35 39
20 18 16 12 9 8 8 9 8 6 6 3 7 9 12 20 18 19 18 16 14 9 4 7 13 15 16 17 19 21 24 27 29 30 32 32 33 33 29 27 33 35 33
15 13 12 11 9 12 12 12 11 13 13 14 15 17 21 22 22 20 18 16 16 13 11 12 13 15 17 17 19 21 25 26 28 29 34 41 44 42 38 36 33 27 25
14 14 16 15 14 15 13 10 7 10 6 10 11 12 16 17 21 22 14 13 13 15 15 15 18 20 22 23 23 24 22 22 28 27 32 46 50 47 42 36 30 24 20
17 16 16 16 15 11 6 4 7 9 9 7 7 6 9 12 16 16 12 10 12 12 15 18 19 19 20 22 20 21 22 26 27 27 32 48 47 42 38 33 25 22 19
16 15 13 8 11 13 11 15 14 11 8 8 9 7 8 13 17 17 18 18 17 17 17 18 16 17 18 18 20 22 26 26 29 28 34 45 43 40 37 32 29 27 25
14 12 11 9 6 11 13 14 18 20 19 16 13 11 18 18 19 19 22 19 18 20 17 17 19 22 23 24 24 25 27 29 34 31 40 45 47 44 39 34 31 29 26
12 11 11 11 7 6 9 13 16 18 20 21 19 19 19 20 15 17 19 24 18 17 18 20 22 24 25 25 26 27 30 31 36 34 38 44 51 48 45 41 38 33 31
14 12 12 10 9 9 7 8 12 13 17 20 22 21 23 24 23 18 20 19 22 22 23 23 24 25 25 25 27 27 31 32 38 36 37 44 50 52 50 48 42 36 32
15 13 12 11 10 10 9 9 10 11 13 16 19 18 18 23 24 22 21 19 21 22 22 23 24 24 25 26 27 29 31 36 41 40 39 41 46 53 54 52 45 40 36
13 12 12 13 13 11 9 9 10 10 10 8 14 13 17 18 19 21 19 21 21 22 22 22 23 24 25 26 27 28 30 36 41 41 39 41 42 50 55 54 47 40 36
18 17 13 12 11 10 10 10 11 11 11 9 16 20 17 17 18 19 19 20 21 21 20 22 22 23 24 26 28 31 33 39 42 41 40 41 42 47 52 53 49 44 35
13 15 13 12 12 10 11 11 11 11 11 12 13 18 17 16 16 18 19 19 20 20 21 20 21 23 25 25 28 34 35 39 40 40 40 40 43 46 48 49 50 47 39
11 10 11 12 11 11 11 10 10 11 11 11 12 14 14 14 15 16 17 18 18 18 19 19 20 23 24 23 29 36 37 38 40 39 39 38 41 43 45 44 50 48 43
11 10 11 11 11 12 10 10 11 11 11 11 11 12 13 14 15 16 16 17 18 18 19 19 19 23 24 22 27 36 37 38 37 36 36 36 39 43 43 41 47 48 45
10 10 10 12 12 10 10 9 10 11 10 10 11 11 13 13 14 15 16 17 17 18 18 18 19 21 22 24 28 34 34 34 34 32 31 33 37 39 39 38 42 44 43
10 9 10 10 10 9 9 9 9 9 10 10 11 11 12 12 13 14 15 16 17 17 17 17 18 21 21 23 31 33 33 32 31 30 29 30 32 35 34 37 39 40 42
8 9 8 10 9 9 8 7 8 8 10 9 10 10 11 12 12 13 15 16 17 16 17 17 18 20 22 28 31 32 32 32 31 30 27 29 30 33 33 34 38 38 40
Wind_Direction
156 158 158 160 159 160 160 162 166 170 168 165 147 116 93 255 276 298 315 346 304 289 299 305 300 300 300 301 297 301 301 300 299 299 300 314 317 318 315 316 316 315 316
148 147 141 139 142 145 150 150 146 143 128 136 155 171 215 290 304 327 337 284 288 295 307 308 302 299 297 299 301 295 292 291 295 301 308 313 314 319 321 317 318 320 315
139 134 133 135 137 136 132 131 133 141 149 133 87 59 357 329 315 275 262 266 280 285 300 300 302 300 301 297 297 297 303 303 304 305 309 319 323 321 319 316 321 319 313
128 126 126 123 122 122 119 117 120 121 117 93 60 30 255 251 259 273 279 291 307 305 285 288 301 298 291 294 297 302 305 308 313 321 318 328 325 318 315 316 316 314 314
123 121 120 116 114 118 122 124 115 111 97 96 174 229 248 263 279 289 294 307 314 316 313 299 295 295 290 291 304 308 312 323 331 329 325 324 322 322 318 313 311 318 319
115 112 114 117 117 110 104 101 141 166 184 209 230 256 270 283 296 301 314 321 320 331 326 294 286 301 285 290 301 317 342 341 330 325 318 318 319 316 322 318 318 323 320
112 111 110 106 102 110 139 174 183 216 272 12 339 294 292 303 305 315 327 322 332 318 291 292 299 295 295 313 325 331 357 333 318 310 310 322 329 329 329 326 321 315 313
107 105 102 100 102 118 114 83 72 76 70 51 348 308 307 319 325 333 330 327 301 279 291 292 299 301 312 324 330 334 335 337 318 327 326 332 324 323 324 323 317 313 306
101 101 102 105 112 94 83 81 79 79 61 24 299 316 319 325 335 343 349 350 342 350 333 332 312 306 324 339 340 339 337 333 331 325 334 332 327 325 326 323 321 312 308
105 104 107 101 107 104 84 77 83 66 24 47 349 356 358 343 353 354 358 357 350 344 335 329 322 336 337 337 336 339 341 337 336 331 334 340 344 339 332 320 313 311 310
102 93 89 94 82 68 66 60 59 48 40 30 27 15 5 358 348 352 351 358 1 3 354 353 352 353 352 354 2 359 357 345 344 339 334 345 346 344 341 334 326 313 305
106 112 114 97 81 74 76 65 67 62 38 27 14 21 13 0 333 346 345 350 355 7 13 21 21 22 17 18 14 359 354 346 342 341 336 345 344 342 339 334 329 321 308
102 93 88 81 68 54 46 81 67 78 50 47 44 18 1 315 336 2 5 8 14 25 32 26 18 17 16 17 6 355 352 348 349 349 338 344 344 342 340 338 336 333 322
103 104 106 107 116 90 45 44 49 68 59 60 55 14 356 8 19 31 36 41 47 45 37 29 20 19 17 16 11 5 359 1 354 355 341 347 351 355 356 354 349 348 341
104 97 90 92 68 62 63 54 51 56 52 53 55 39 33 32 34 38 38 35 41 39 35 26 30 24 18 15 13 5 3 358 356 354 350 355 5 4 4 4 1 356 350
107 106 101 98 83 44 59 61 51 48 46 45 50 48 45 39 45 47 41 35 39 40 35 34 26 22 17 13 9 5 1 356 353 353 356 5 9 7 7 8 5 1 356
104 100 100 98 98 93 53 33 42 42 38 30 37 44 45 39 43 51 47 36 30 39 34 28 22 19 14 11 8 4 1 353 354 0 1 8 10 9 8 6 3 3 0
110 107 104 99 95 89 82 77 66 45 37 30 19 38 42 37 29 36 37 39 33 31 33 24 20 17 12 10 6 2 360 354 2 3 7 6 10 10 6 2 4 5 5
108 95 91 96 97 88 82 76 70 64 58 37 27 41 56 42 30 25 36 36 30 25 27 25 18 15 10 8 2 359 358 356 2 4 10 8 11 12 8 6 7 8 9
110 103 101 93 87 83 79 73 66 61 53 38 31 42 49 43 29 25 30 27 29 22 21 20 15 13 9 5 351 1 358 2 2 4 10 8 14 12 2 7 11 9 7
93 95 95 92 87 80 74 70 64 58 52 45 27 33 40 33 28 25 23 24 22 18 15 18 13 11 8 4 347 359 1 1 3 3 9 6 13 10 357 8 11 11 9
100 96 91 86 80 83 72 70 63 55 48 43 35 25 30 32 25 24 21 20 19 16 13 13 12 8 8 359 342 356 0 1 1 1 6 3 11 5 355 4 9 10 10
96 94 92 82 76 72 67 55 57 55 46 38 35 29 27 26 22 21 18 14 16 14 11 12 8 5 9 348 345 358 360 1 0 0 0 4 7 359 357 5 6 7 8
93 90 84 77 81 69 71 59 52 45 43 36 29 28 23 20 17 18 11 8 13 10 8 9 3 2 3 337 349 356 360 360 360 359 358 4 4 351 358 7 2 5 7
98 95 88 85 82 79 67 60 47 49 38 32 22 23 21 14 12 16 1 5 9 1 3 3 359 357 354 331 348 355 356 360 0 358 357 6 356 354 360 6 0 5 7
86 88 91 95 83 77 68 61 50 38 37 24 18 19 16 8 5 11 350 3 2 356 359 358 355 352 339 337 346 352 353 356 0 359 356 4 355 356 0 3 2 6 8